Location: Recife
(8.0585°S, 34.8848°W)
Time: 06:53:41
(UTC-03:00)

Vanguard 3 - Pass Details

Date: 20 April 2026
Orbit: 507 x 3205 km, 33.4° (Epoch: 13 May)

Event Time Altitude Azimuth Distance (km) Brightness Sun altitude
Rises 05:47:24 0° 305° (NW) 3,725 10.1 5.4°
Reaches altitude 10° 05:49:32 10° 304° (NW) 3,020 9.7 5.9°
Maximum altitude 05:57:16 89° 217° (SW) 1,666 8.9 7.8°
Drops below altitude 10° 06:11:34 10° 125° (SE) 5,270 12.0 11.2°
Sets 06:16:31 0° 124° (SE) 6,624 12.5 12.4°
